• în Republica Moldova
  • Lista ţărilor
  • Pe 7 zile
  • Temperatura apei
  • Hartă satelitară
  • Meteo pe hartă
  • Widget-uri
  • user-avatar
    Intrare

    Meteo pe oră la Bregenz

    Astăzi, 24 Septembrie, Duminică

    Timp Temperatura Precipitaţii Vânt Presiune Umiditate
    00:00 +7°C° 0,4 mm 1 m/s 648 mmHg 93%
    01:00 +8°C° 0 mm 1 m/s 648 mmHg 93%
    02:00 +8°C° 0,7 mm 1 m/s 648 mmHg 93%
    03:00 +7°C° 0,7 mm 1 m/s 647 mmHg 93%
    04:00 +7°C° 0,7 mm 1 m/s 647 mmHg 94%
    05:00 +7°C° 0,3 mm 1 m/s 647 mmHg 94%
    06:00 +7°C° 0,3 mm 1 m/s 648 mmHg 93%
    07:00 +7°C° 0 mm 1 m/s 648 mmHg 93%
    08:00 +8°C° 0,2 mm 1 m/s 648 mmHg 87%
    09:00 +10°C° 0,2 mm 1 m/s 649 mmHg 82%
    10:00 +11°C° 0,2 mm 1 m/s 649 mmHg 77%
    11:00 +12°C° 0,2 mm 1 m/s 649 mmHg 70%
    12:00 +13°C° 0,2 mm 1 m/s 649 mmHg 64%
    13:00 +14°C° 0,2 mm 1 m/s 650 mmHg 57%
    14:00 +14°C° 0,1 mm 1 m/s 649 mmHg 58%
    15:00 +13°C° 0,1 mm 1 m/s 649 mmHg 60%
    16:00 +13°C° 0,1 mm 1 m/s 649 mmHg 61%
    17:00 +11°C° 0 mm 1 m/s 649 mmHg 71%
    18:00 +9°C° 0 mm 1 m/s 648 mmHg 80%
    19:00 +7°C° 0 mm 1 m/s 648 mmHg 90%
    20:00 +6°C° 0 mm 1 m/s 648 mmHg 90%
    21:00 +6°C° 0 mm 1 m/s 648 mmHg 91%
    22:00 +6°C° 0 mm 1 m/s 648 mmHg 92%
    23:00 +5°C° 0 mm 1 m/s 648 mmHg 91%

    Mâine, 25 Septembrie, Luni

    Timp Temperatura Precipitaţii Vânt Presiune Umiditate
    00:00 +5°C° 0 mm 1 m/s 648 mmHg 90%
    01:00 +5°C° 0 mm 1 m/s 647 mmHg 89%
    02:00 +5°C° 0 mm 1 m/s 647 mmHg 87%
    03:00 +4°C° 0 mm 1 m/s 647 mmHg 86%
    04:00 +4°C° 0 mm 1 m/s 647 mmHg 84%
    05:00 +4°C° 0 mm 1 m/s 647 mmHg 83%
    06:00 +5°C° 0 mm 1 m/s 647 mmHg 81%
    07:00 +5°C° 0 mm 1 m/s 647 mmHg 79%
    08:00 +7°C° 0 mm 1 m/s 648 mmHg 72%
    09:00 +9°C° 0 mm 0 m/s 648 mmHg 64%
    10:00 +12°C° 0 mm 0 m/s 649 mmHg 57%
    11:00 +13°C° 0 mm 0 m/s 649 mmHg 53%
    12:00 +14°C° 0 mm 1 m/s 649 mmHg 50%
    13:00 +15°C° 0 mm 1 m/s 649 mmHg 47%
    14:00 +15°C° 0 mm 1 m/s 648 mmHg 49%
    15:00 +15°C° 0 mm 1 m/s 648 mmHg 51%
    16:00 +14°C° 0 mm 1 m/s 648 mmHg 53%
    17:00 +12°C° 0 mm 1 m/s 648 mmHg 63%
    18:00 +9°C° 0 mm 1 m/s 647 mmHg 73%
    19:00 +7°C° 0 mm 1 m/s 647 mmHg 83%
    20:00 +7°C° 0 mm 1 m/s 647 mmHg 83%
    21:00 +7°C° 0 mm 1 m/s 647 mmHg 82%
    22:00 +7°C° 0 mm 1 m/s 648 mmHg 82%
    23:00 +7°C° 0 mm 1 m/s 648 mmHg 81%

    Poimâine, 26 Septembrie, Marţi

    Timp Temperatura Precipitaţii Vânt Presiune Umiditate
    00:00 +7°C° 0 mm 1 m/s 648 mmHg 81%
    01:00 +7°C° 0 mm 1 m/s 648 mmHg 80%
    02:00 +7°C° 0 mm 1 m/s 648 mmHg 81%
    03:00 +6°C° 0 mm 1 m/s 647 mmHg 82%
    04:00 +6°C° 0 mm 1 m/s 647 mmHg 83%
    05:00 +6°C° 0,1 mm 1 m/s 648 mmHg 83%
    06:00 +6°C° 0,1 mm 1 m/s 648 mmHg 84%
    07:00 +7°C° 0,1 mm 1 m/s 648 mmHg 84%
    08:00 +9°C° 0 mm 1 m/s 649 mmHg 78%
    09:00 +11°C° 0 mm 1 m/s 649 mmHg 71%
    10:00 +13°C° 0 mm 1 m/s 650 mmHg 64%
    11:00 +13°C° 0 mm 1 m/s 650 mmHg 63%
    12:00 +14°C° 0 mm 1 m/s 650 mmHg 62%
    13:00 +15°C° 0 mm 1 m/s 650 mmHg 60%
    14:00 +14°C° 0,2 mm 1 m/s 650 mmHg 64%
    15:00 +14°C° 0,2 mm 1 m/s 650 mmHg 68%
    16:00 +13°C° 0,2 mm 1 m/s 650 mmHg 71%
    17:00 +12°C° 0,2 mm 1 m/s 650 mmHg 78%
    18:00 +10°C° 0,2 mm 1 m/s 649 mmHg 84%
    19:00 +7°C° 0,2 mm 0 m/s 649 mmHg 91%
    20:00 +8°C° 0 mm 1 m/s 649 mmHg 92%
    21:00 +7°C° 0 mm 1 m/s 649 mmHg 92%
    22:00 +7°C° 0 mm 1 m/s 650 mmHg 93%
    23:00 +7°C° 0 mm 1 m/s 650 mmHg 92%

    27 Septembrie, Miercuri

    Timp Temperatura Precipitaţii Vânt Presiune Umiditate
    00:00 +7°C° 0 mm 1 m/s 650 mmHg 92%
    01:00 +6°C° 0 mm 1 m/s 650 mmHg 92%
    02:00 +6°C° 0 mm 1 m/s 649 mmHg 92%
    03:00 +6°C° 0 mm 1 m/s 649 mmHg 92%
    04:00 +6°C° 0 mm 1 m/s 649 mmHg 92%
    05:00 +6°C° 0 mm 1 m/s 650 mmHg 91%
    06:00 +6°C° 0 mm 1 m/s 650 mmHg 91%
    07:00 +6°C° 0 mm 1 m/s 650 mmHg 90%
    08:00 +9°C° 0 mm 1 m/s 651 mmHg 82%
    09:00 +10°C° 0 mm 0 m/s 651 mmHg 74%
    10:00 +13°C° 0 mm 0 m/s 652 mmHg 66%
    11:00 +14°C° 0 mm 1 m/s 652 mmHg 62%
    12:00 +15°C° 0 mm 1 m/s 652 mmHg 59%
    13:00 +16°C° 0 mm 1 m/s 652 mmHg 56%
    14:00 +16°C° 0,2 mm 1 m/s 652 mmHg 60%
    15:00 +15°C° 0,2 mm 1 m/s 652 mmHg 64%
    16:00 +15°C° 0,2 mm 1 m/s 652 mmHg 68%
    17:00 +13°C° 0,2 mm 1 m/s 651 mmHg 75%
    18:00 +11°C° 0,2 mm 1 m/s 651 mmHg 83%
    19:00 +9°C° 0,2 mm 1 m/s 651 mmHg 90%
    20:00 +8°C° 0 mm 1 m/s 651 mmHg 90%
    21:00 +8°C° 0 mm 1 m/s 651 mmHg 90%
    22:00 +8°C° 0 mm 1 m/s 651 mmHg 89%
    23:00 +7°C° 0 mm 1 m/s 651 mmHg 89%

    28 Septembrie, Joi

    Timp Temperatura Precipitaţii Vânt Presiune Umiditate
    00:00 +7°C° 0 mm 1 m/s 651 mmHg 88%
    01:00 +7°C° 0 mm 1 m/s 651 mmHg 88%
    02:00 +7°C° 0 mm 1 m/s 651 mmHg 88%
    03:00 +7°C° 0 mm 1 m/s 651 mmHg 88%
    04:00 +7°C° 0 mm 1 m/s 651 mmHg 87%
    05:00 +7°C° 0 mm 1 m/s 651 mmHg 86%
    06:00 +7°C° 0 mm 1 m/s 651 mmHg 86%
    07:00 +7°C° 0 mm 1 m/s 651 mmHg 85%
    08:00 +9°C° 0 mm 1 m/s 652 mmHg 77%
    09:00 +12°C° 0 mm 1 m/s 653 mmHg 69%
    10:00 +13°C° 0 mm 0 m/s 653 mmHg 61%
    11:00 +14°C° 0 mm 1 m/s 653 mmHg 61%
    12:00 +14°C° 0 mm 1 m/s 653 mmHg 60%
    13:00 +15°C° 0 mm 1 m/s 653 mmHg 59%
    14:00 +14°C° 0 mm 1 m/s 653 mmHg 63%
    15:00 +14°C° 0 mm 1 m/s 653 mmHg 68%
    16:00 +14°C° 0 mm 1 m/s 653 mmHg 72%
    17:00 +12°C° 0 mm 1 m/s 652 mmHg 78%
    18:00 +10°C° 0 mm 1 m/s 652 mmHg 85%
    19:00 +9°C° 0 mm 1 m/s 652 mmHg 91%
    20:00 +8°C° 0 mm 1 m/s 652 mmHg 91%
    21:00 +8°C° 0 mm 1 m/s 652 mmHg 90%
    22:00 +7°C° 0 mm 1 m/s 652 mmHg 90%
    23:00 +7°C° 0 mm 1 m/s 651 mmHg 88%

    29 Septembrie, Vineri

    Timp Temperatura Precipitaţii Vânt Presiune Umiditate
    00:00 +7°C° 0 mm 1 m/s 651 mmHg 87%
    01:00 +7°C° 0 mm 1 m/s 651 mmHg 85%
    02:00 +6°C° 0 mm 1 m/s 651 mmHg 84%
    03:00 +6°C° 0 mm 1 m/s 651 mmHg 83%
    04:00 +6°C° 0 mm 1 m/s 651 mmHg 81%
    05:00 +6°C° 0 mm 1 m/s 651 mmHg 81%
    06:00 +6°C° 0 mm 1 m/s 650 mmHg 80%
    07:00 +6°C° 0 mm 1 m/s 650 mmHg 80%
    08:00 +9°C° 0 mm 1 m/s 651 mmHg 71%
    09:00 +12°C° 0 mm 1 m/s 651 mmHg 63%
    10:00 +13°C° 0 mm 0 m/s 652 mmHg 55%
    11:00 +15°C° 0 mm 1 m/s 652 mmHg 53%
    12:00 +16°C° 0 mm 1 m/s 652 mmHg 51%
    13:00 +16°C° 0 mm 2 m/s 652 mmHg 49%
    14:00 +16°C° 0 mm 2 m/s 651 mmHg 53%
    15:00 +16°C° 0 mm 2 m/s 651 mmHg 57%
    16:00 +15°C° 0 mm 2 m/s 651 mmHg 61%
    17:00 +13°C° 0 mm 1 m/s 650 mmHg 71%
    18:00 +11°C° 0 mm 1 m/s 649 mmHg 81%
    19:00 +8°C° 0 mm 1 m/s 649 mmHg 91%
    20:00 +8°C° 0 mm 1 m/s 648 mmHg 90%
    21:00 +8°C° 0 mm 1 m/s 648 mmHg 90%
    22:00 +8°C° 0 mm 1 m/s 648 mmHg 90%
    23:00 +7°C° 0 mm 1 m/s 648 mmHg 89%
    Arată mai mult